owner,sensor,date,latitude,longitude,sea_surface_height_above_sea_level,qcFlag 
TCOON,ioos:station:TCOON:003:1,2019-08-01T00:24:00Z,26.8015,-97.4706,1.368,11111222 
TCOON,ioos:station:TCOON:003:1,2019-08-01T01:24:00Z,26.8015,-97.4706,1.35,11111222 
TCOON,ioos:station:TCOON:003:1,2019-08-01T02:24:00Z,26.8015,-97.4706,1.344,11111222 
TCOON,ioos:station:TCOON:003:1,2019-08-01T03:24:00Z,26.8015,-97.4706,1.341,11111222 
TCOON,ioos:station:TCOON:003:1,2019-08-01T04:24:00Z,26.8015,-97.4706,1.338,11111222 
TCOON,ioos:station:TCOON:003:1,2019-08-01T05:24:00Z,26.8015,-97.4706,1.324,11111222 
TCOON,ioos:station:TCOON:003:1,2019-08-01T06:24:00Z,26.8015,-97.4706,1.32,11111222 
TCOON,ioos:station:TCOON:003:1,2019-08-01T07:24:00Z,26.8015,-97.4706,1.327,11111222 
TCOON,ioos:station:TCOON:003:1,2019-08-01T08:24:00Z,26.8015,-97.4706,1.33,11111222 
TCOON,ioos:station:TCOON:003:1,2019-08-01T09:24:00Z,26.8015,-97.4706,1.305,11111222 
TCOON,ioos:station:TCOON:003:1,2019-08-01T10:24:00Z,26.8015,-97.4706,1.258,11111222 
TCOON,ioos:station:TCOON:003:1,2019-08-01T11:24:00Z,26.8015,-97.4706,1.237,11111222 
TCOON,ioos:station:TCOON:003:1,2019-08-01T12:24:00Z,26.8015,-97.4706,1.244,11111222 
TCOON,ioos:station:TCOON:003:1,2019-08-01T13:24:00Z,26.8015,-97.4706,1.256,11111222 
TCOON,ioos:station:TCOON:003:1,2019-08-01T14:24:00Z,26.8015,-97.4706,1.233,11111222 
TCOON,ioos:station:TCOON:003:1,2019-08-01T15:24:00Z,26.8015,-97.4706,1.275,11111222 
TCOON,ioos:station:TCOON:003:1,2019-08-01T16:24:00Z,26.8015,-97.4706,1.282,11111222 
TCOON,ioos:station:TCOON:003:1,2019-08-01T17:24:00Z,26.8015,-97.4706,1.283,11111222 
TCOON,ioos:station:TCOON:003:1,2019-08-01T18:24:00Z,26.8015,-97.4706,1.289,11111222 
TCOON,ioos:station:TCOON:003:1,2019-08-01T19:24:00Z,26.8015,-97.4706,1.284,11111222 
TCOON,ioos:station:TCOON:003:1,2019-08-01T20:24:00Z,26.8015,-97.4706,1.294,11111222 
TCOON,ioos:station:TCOON:003:1,2019-08-01T21:24:00Z,26.8015,-97.4706,1.305,11111222 
TCOON,ioos:station:TCOON:003:1,2019-08-01T22:24:00Z,26.8015,-97.4706,1.313,11111222 
TCOON,ioos:station:TCOON:003:1,2019-08-01T23:24:00Z,26.8015,-97.4706,1.32,11111222 
TCOON,ioos:station:TCOON:003:1,2019-08-02T00:24:00Z,26.8015,-97.4706,1.324,11111222 
TCOON,ioos:station:TCOON:003:1,2019-08-02T01:24:00Z,26.8015,-97.4706,1.32,11111222 
TCOON,ioos:station:TCOON:003:1,2019-08-02T02:24:00Z,26.8015,-97.4706,1.307,11111222 
TCOON,ioos:station:TCOON:003:1,2019-08-02T03:24:00Z,26.8015,-97.4706,1.297,11111222 
TCOON,ioos:station:TCOON:003:1,2019-08-02T04:24:00Z,26.8015,-97.4706,1.293,11111222 
TCOON,ioos:station:TCOON:003:1,2019-08-02T05:24:00Z,26.8015,-97.4706,1.294,11111222 
TCOON,ioos:station:TCOON:003:1,2019-08-02T08:24:00Z,26.8015,-97.4706,1.267,11111222 
TCOON,ioos:station:TCOON:003:1,2019-08-02T09:24:00Z,26.8015,-97.4706,1.233,11111222 
TCOON,ioos:station:TCOON:003:1,2019-08-02T12:24:00Z,26.8015,-97.4706,1.228,11111222 
TCOON,ioos:station:TCOON:003:1,2019-08-02T14:24:00Z,26.8015,-97.4706,1.234,11111222 
TCOON,ioos:station:TCOON:003:1,2019-08-02T15:24:00Z,26.8015,-97.4706,1.239,11111222 
TCOON,ioos:station:TCOON:003:1,2019-08-02T16:24:00Z,26.8015,-97.4706,1.247,11111222 
TCOON,ioos:station:TCOON:003:1,2019-08-02T17:24:00Z,26.8015,-97.4706,1.249,11111222 
TCOON,ioos:station:TCOON:003:1,2019-08-02T18:24:00Z,26.8015,-97.4706,1.255,11111222 
TCOON,ioos:station:TCOON:003:1,2019-08-02T19:24:00Z,26.8015,-97.4706,1.258,11111222 
TCOON,ioos:station:TCOON:003:1,2019-08-02T21:24:00Z,26.8015,-97.4706,1.275,11111222 
TCOON,ioos:station:TCOON:003:1,2019-08-02T22:24:00Z,26.8015,-97.4706,1.289,11111222 
TCOON,ioos:station:TCOON:003:1,2019-08-02T23:24:00Z,26.8015,-97.4706,1.301,11111222 
TCOON,ioos:station:TCOON:003:1,2019-08-03T00:24:00Z,26.8015,-97.4706,1.308,11111222 
TCOON,ioos:station:TCOON:003:1,2019-08-03T01:24:00Z,26.8015,-97.4706,1.307,11111222 
TCOON,ioos:station:TCOON:003:1,2019-08-03T02:24:00Z,26.8015,-97.4706,1.304,11111222 
TCOON,ioos:station:TCOON:003:1,2019-08-03T03:24:00Z,26.8015,-97.4706,1.293,11111222 
TCOON,ioos:station:TCOON:003:1,2019-08-03T04:24:00Z,26.8015,-97.4706,1.285,11111222 
TCOON,ioos:station:TCOON:003:1,2019-08-03T05:24:00Z,26.8015,-97.4706,1.277,11111222 
TCOON,ioos:station:TCOON:003:1,2019-08-03T06:24:00Z,26.8015,-97.4706,1.272,11111222 
TCOON,ioos:station:TCOON:003:1,2019-08-03T07:24:00Z,26.8015,-97.4706,1.275,11111222 
TCOON,ioos:station:TCOON:003:1,2019-08-03T08:24:00Z,26.8015,-97.4706,1.254,11111222 
TCOON,ioos:station:TCOON:003:1,2019-08-03T09:24:00Z,26.8015,-97.4706,1.236,11111222 
TCOON,ioos:station:TCOON:003:1,2019-08-03T10:24:00Z,26.8015,-97.4706,1.236,11111222 
TCOON,ioos:station:TCOON:003:1,2019-08-03T11:24:00Z,26.8015,-97.4706,1.233,11111222 
TCOON,ioos:station:TCOON:003:1,2019-08-03T12:24:00Z,26.8015,-97.4706,1.234,11111222 
TCOON,ioos:station:TCOON:003:1,2019-08-03T13:24:00Z,26.8015,-97.4706,1.242,11111222 
TCOON,ioos:station:TCOON:003:1,2019-08-03T14:24:00Z,26.8015,-97.4706,1.245,11111222 
TCOON,ioos:station:TCOON:003:1,2019-08-03T15:24:00Z,26.8015,-97.4706,1.252,11111222 
TCOON,ioos:station:TCOON:003:1,2019-08-03T16:24:00Z,26.8015,-97.4706,1.26,11111222 
TCOON,ioos:station:TCOON:003:1,2019-08-03T17:24:00Z,26.8015,-97.4706,1.262,11111222 
TCOON,ioos:station:TCOON:003:1,2019-08-03T18:24:00Z,26.8015,-97.4706,1.267,11111222 
TCOON,ioos:station:TCOON:003:1,2019-08-03T19:24:00Z,26.8015,-97.4706,1.265,11111222 
TCOON,ioos:station:TCOON:003:1,2019-08-03T20:24:00Z,26.8015,-97.4706,1.273,11111222 
TCOON,ioos:station:TCOON:003:1,2019-08-03T21:24:00Z,26.8015,-97.4706,1.279,11111222 
TCOON,ioos:station:TCOON:003:1,2019-08-03T22:24:00Z,26.8015,-97.4706,1.29,11111222 
TCOON,ioos:station:TCOON:003:1,2019-08-03T23:24:00Z,26.8015,-97.4706,1.3,11111222 
TCOON,ioos:station:TCOON:003:1,2019-08-04T00:24:00Z,26.8015,-97.4706,1.312,11111222 
TCOON,ioos:station:TCOON:003:1,2019-08-04T01:24:00Z,26.8015,-97.4706,1.322,11111222 
TCOON,ioos:station:TCOON:003:1,2019-08-04T02:24:00Z,26.8015,-97.4706,1.331,11111222 
TCOON,ioos:station:TCOON:003:1,2019-08-04T03:24:00Z,26.8015,-97.4706,1.335,11111222 
TCOON,ioos:station:TCOON:003:1,2019-08-04T04:24:00Z,26.8015,-97.4706,1.323,11111222 
TCOON,ioos:station:TCOON:003:1,2019-08-04T05:24:00Z,26.8015,-97.4706,1.309,11111222 
TCOON,ioos:station:TCOON:003:1,2019-08-04T06:24:00Z,26.8015,-97.4706,1.308,11111222 
TCOON,ioos:station:TCOON:003:1,2019-08-04T07:24:00Z,26.8015,-97.4706,1.302,11111222 
TCOON,ioos:station:TCOON:003:1,2019-08-04T08:24:00Z,26.8015,-97.4706,1.302,11111222 
TCOON,ioos:station:TCOON:003:1,2019-08-04T09:24:00Z,26.8015,-97.4706,1.286,11111222 
TCOON,ioos:station:TCOON:003:1,2019-08-04T10:24:00Z,26.8015,-97.4706,1.278,11111222 
TCOON,ioos:station:TCOON:003:1,2019-08-04T11:24:00Z,26.8015,-97.4706,1.264,11111222 
TCOON,ioos:station:TCOON:003:1,2019-08-04T12:24:00Z,26.8015,-97.4706,1.257,11111222 
TCOON,ioos:station:TCOON:003:1,2019-08-04T13:24:00Z,26.8015,-97.4706,1.259,11111222 
TCOON,ioos:station:TCOON:003:1,2019-08-04T14:24:00Z,26.8015,-97.4706,1.266,11111222 
TCOON,ioos:station:TCOON:003:1,2019-08-04T15:24:00Z,26.8015,-97.4706,1.277,11111222 
TCOON,ioos:station:TCOON:003:1,2019-08-04T16:24:00Z,26.8015,-97.4706,1.288,11111222 
TCOON,ioos:station:TCOON:003:1,2019-08-04T17:24:00Z,26.8015,-97.4706,1.288,11111222 
TCOON,ioos:station:TCOON:003:1,2019-08-04T18:24:00Z,26.8015,-97.4706,1.288,11111222 
TCOON,ioos:station:TCOON:003:1,2019-08-04T19:24:00Z,26.8015,-97.4706,1.29,11111222 
TCOON,ioos:station:TCOON:003:1,2019-08-04T20:24:00Z,26.8015,-97.4706,1.306,11111222 
TCOON,ioos:station:TCOON:003:1,2019-08-04T21:24:00Z,26.8015,-97.4706,1.318,11111222 
TCOON,ioos:station:TCOON:003:1,2019-08-04T22:24:00Z,26.8015,-97.4706,1.32,11111222 
TCOON,ioos:station:TCOON:003:1,2019-08-04T23:24:00Z,26.8015,-97.4706,1.321,11111222 
TCOON,ioos:station:TCOON:003:1,2019-08-05T00:24:00Z,26.8015,-97.4706,1.327,11111222 
TCOON,ioos:station:TCOON:003:1,2019-08-05T01:24:00Z,26.8015,-97.4706,1.338,11111222 
TCOON,ioos:station:TCOON:003:1,2019-08-05T02:24:00Z,26.8015,-97.4706,1.353,11111222 
TCOON,ioos:station:TCOON:003:1,2019-08-05T03:24:00Z,26.8015,-97.4706,1.358,11111222 
TCOON,ioos:station:TCOON:003:1,2019-08-05T04:24:00Z,26.8015,-97.4706,1.365,11111222 
TCOON,ioos:station:TCOON:003:1,2019-08-05T05:24:00Z,26.8015,-97.4706,1.374,11111222 
TCOON,ioos:station:TCOON:003:1,2019-08-05T06:24:00Z,26.8015,-97.4706,1.382,11111222 
TCOON,ioos:station:TCOON:003:1,2019-08-05T07:24:00Z,26.8015,-97.4706,1.382,11111222 
TCOON,ioos:station:TCOON:003:1,2019-08-05T08:24:00Z,26.8015,-97.4706,1.345,11111222 
TCOON,ioos:station:TCOON:003:1,2019-08-05T09:24:00Z,26.8015,-97.4706,1.307,11111222 
TCOON,ioos:station:TCOON:003:1,2019-08-05T10:24:00Z,26.8015,-97.4706,1.284,11111222 
TCOON,ioos:station:TCOON:003:1,2019-08-05T11:24:00Z,26.8015,-97.4706,1.276,11111222 
TCOON,ioos:station:TCOON:003:1,2019-08-05T12:24:00Z,26.8015,-97.4706,1.276,11111222 
TCOON,ioos:station:TCOON:003:1,2019-08-05T13:24:00Z,26.8015,-97.4706,1.286,11111222 
TCOON,ioos:station:TCOON:003:1,2019-08-05T14:24:00Z,26.8015,-97.4706,1.302,11111222 
TCOON,ioos:station:TCOON:003:1,2019-08-05T15:24:00Z,26.8015,-97.4706,1.312,11111222 
TCOON,ioos:station:TCOON:003:1,2019-08-05T16:30:00Z,26.8015,-97.4706,1.317,11111222 
TCOON,ioos:station:TCOON:003:1,2019-08-05T17:30:00Z,26.8015,-97.4706,1.316,11111222 
TCOON,ioos:station:TCOON:003:1,2019-08-05T18:24:00Z,26.8015,-97.4706,1.314,11111222 
TCOON,ioos:station:TCOON:003:1,2019-08-05T19:24:00Z,26.8015,-97.4706,1.318,11111222 
TCOON,ioos:station:TCOON:003:1,2019-08-05T20:24:00Z,26.8015,-97.4706,1.342,11111222 
TCOON,ioos:station:TCOON:003:1,2019-08-05T21:24:00Z,26.8015,-97.4706,1.346,11111222 
TCOON,ioos:station:TCOON:003:1,2019-08-05T22:24:00Z,26.8015,-97.4706,1.365,11111222 
TCOON,ioos:station:TCOON:003:1,2019-08-05T23:24:00Z,26.8015,-97.4706,1.37,11111222 
TCOON,ioos:station:TCOON:003:1,2019-08-06T00:24:00Z,26.8015,-97.4706,1.37,11111222 
TCOON,ioos:station:TCOON:003:1,2019-08-06T01:24:00Z,26.8015,-97.4706,1.378,11111222 
TCOON,ioos:station:TCOON:003:1,2019-08-06T02:24:00Z,26.8015,-97.4706,1.39,11111222 
TCOON,ioos:station:TCOON:003:1,2019-08-06T03:24:00Z,26.8015,-97.4706,1.393,11111222 
TCOON,ioos:station:TCOON:003:1,2019-08-06T04:24:00Z,26.8015,-97.4706,1.414,11111222 
TCOON,ioos:station:TCOON:003:1,2019-08-06T05:24:00Z,26.8015,-97.4706,1.419,11111222 
TCOON,ioos:station:TCOON:003:1,2019-08-06T06:24:00Z,26.8015,-97.4706,1.423,11111222 
TCOON,ioos:station:TCOON:003:1,2019-08-06T07:24:00Z,26.8015,-97.4706,1.391,11111222 
TCOON,ioos:station:TCOON:003:1,2019-08-06T08:24:00Z,26.8015,-97.4706,1.344,11111222 
TCOON,ioos:station:TCOON:003:1,2019-08-06T09:24:00Z,26.8015,-97.4706,1.313,11111222 
TCOON,ioos:station:TCOON:003:1,2019-08-06T10:24:00Z,26.8015,-97.4706,1.305,11111222 
TCOON,ioos:station:TCOON:003:1,2019-08-06T11:24:00Z,26.8015,-97.4706,1.303,11111222 
TCOON,ioos:station:TCOON:003:1,2019-08-06T12:24:00Z,26.8015,-97.4706,1.309,11111222 
TCOON,ioos:station:TCOON:003:1,2019-08-06T13:24:00Z,26.8015,-97.4706,1.306,11111222 
TCOON,ioos:station:TCOON:003:1,2019-08-06T14:24:00Z,26.8015,-97.4706,1.305,11111222 
TCOON,ioos:station:TCOON:003:1,2019-08-06T15:24:00Z,26.8015,-97.4706,1.311,11111222 
TCOON,ioos:station:TCOON:003:1,2019-08-06T16:24:00Z,26.8015,-97.4706,1.316,11111222 
TCOON,ioos:station:TCOON:003:1,2019-08-06T17:30:00Z,26.8015,-97.4706,1.325,11111222 
TCOON,ioos:station:TCOON:003:1,2019-08-06T18:24:00Z,26.8015,-97.4706,1.329,11111222 
TCOON,ioos:station:TCOON:003:1,2019-08-06T19:24:00Z,26.8015,-97.4706,1.341,11111222 
TCOON,ioos:station:TCOON:003:1,2019-08-06T20:24:00Z,26.8015,-97.4706,1.364,11111222 
TCOON,ioos:station:TCOON:003:1,2019-08-06T21:24:00Z,26.8015,-97.4706,1.389,11111222 
TCOON,ioos:station:TCOON:003:1,2019-08-06T22:24:00Z,26.8015,-97.4706,1.401,11111222 
TCOON,ioos:station:TCOON:003:1,2019-08-06T23:24:00Z,26.8015,-97.4706,1.406,11111222 
TCOON,ioos:station:TCOON:003:1,2019-08-07T00:24:00Z,26.8015,-97.4706,1.403,11111222 
TCOON,ioos:station:TCOON:003:1,2019-08-07T01:24:00Z,26.8015,-97.4706,1.397,11111222 
TCOON,ioos:station:TCOON:003:1,2019-08-07T02:24:00Z,26.8015,-97.4706,1.391,11111222 
TCOON,ioos:station:TCOON:003:1,2019-08-07T03:24:00Z,26.8015,-97.4706,1.399,11111222 
TCOON,ioos:station:TCOON:003:1,2019-08-07T04:24:00Z,26.8015,-97.4706,1.408,11111222 
TCOON,ioos:station:TCOON:003:1,2019-08-07T05:24:00Z,26.8015,-97.4706,1.414,11111222 
TCOON,ioos:station:TCOON:003:1,2019-08-07T06:24:00Z,26.8015,-97.4706,1.419,11111222 
TCOON,ioos:station:TCOON:003:1,2019-08-07T07:24:00Z,26.8015,-97.4706,1.39,11111222 
TCOON,ioos:station:TCOON:003:1,2019-08-07T08:24:00Z,26.8015,-97.4706,1.361,11111222 
TCOON,ioos:station:TCOON:003:1,2019-08-07T09:24:00Z,26.8015,-97.4706,1.351,11111222 
TCOON,ioos:station:TCOON:003:1,2019-08-07T10:24:00Z,26.8015,-97.4706,1.349,11111222 
TCOON,ioos:station:TCOON:003:1,2019-08-07T11:24:00Z,26.8015,-97.4706,1.325,11111222 
TCOON,ioos:station:TCOON:003:1,2019-08-07T12:24:00Z,26.8015,-97.4706,1.317,11111222 
TCOON,ioos:station:TCOON:003:1,2019-08-07T13:24:00Z,26.8015,-97.4706,1.311,11111222 
TCOON,ioos:station:TCOON:003:1,2019-08-07T14:24:00Z,26.8015,-97.4706,1.315,11111222 
TCOON,ioos:station:TCOON:003:1,2019-08-07T15:30:00Z,26.8015,-97.4706,1.325,11111222 
TCOON,ioos:station:TCOON:003:1,2019-08-07T16:24:00Z,26.8015,-97.4706,1.332,11111222 
TCOON,ioos:station:TCOON:003:1,2019-08-07T17:24:00Z,26.8015,-97.4706,1.351,11111222 
TCOON,ioos:station:TCOON:003:1,2019-08-07T18:24:00Z,26.8015,-97.4706,1.368,11111222 
TCOON,ioos:station:TCOON:003:1,2019-08-07T19:24:00Z,26.8015,-97.4706,1.391,11111222 
TCOON,ioos:station:TCOON:003:1,2019-08-07T20:24:00Z,26.8015,-97.4706,1.404,11111222 
TCOON,ioos:station:TCOON:003:1,2019-08-07T21:24:00Z,26.8015,-97.4706,1.414,11111222 
TCOON,ioos:station:TCOON:003:1,2019-08-07T22:24:00Z,26.8015,-97.4706,1.416,11111222 
TCOON,ioos:station:TCOON:003:1,2019-08-07T23:24:00Z,26.8015,-97.4706,1.397,11111222 
TCOON,ioos:station:TCOON:003:1,2019-08-08T00:24:00Z,26.8015,-97.4706,1.369,11111222 
TCOON,ioos:station:TCOON:003:1,2019-08-08T01:24:00Z,26.8015,-97.4706,1.367,11111222 
TCOON,ioos:station:TCOON:003:1,2019-08-08T02:24:00Z,26.8015,-97.4706,1.388,11111222 
TCOON,ioos:station:TCOON:003:1,2019-08-08T03:24:00Z,26.8015,-97.4706,1.4,11111222 
TCOON,ioos:station:TCOON:003:1,2019-08-08T04:24:00Z,26.8015,-97.4706,1.397,11111222 
TCOON,ioos:station:TCOON:003:1,2019-08-08T06:24:00Z,26.8015,-97.4706,1.37,11111222 
TCOON,ioos:station:TCOON:003:1,2019-08-08T07:24:00Z,26.8015,-97.4706,1.358,11111222 
TCOON,ioos:station:TCOON:003:1,2019-08-08T08:24:00Z,26.8015,-97.4706,1.36,11111222 
TCOON,ioos:station:TCOON:003:1,2019-08-08T09:24:00Z,26.8015,-97.4706,1.376,11111222 
TCOON,ioos:station:TCOON:003:1,2019-08-08T10:24:00Z,26.8015,-97.4706,1.404,11111222 
TCOON,ioos:station:TCOON:003:1,2019-08-08T11:24:00Z,26.8015,-97.4706,1.416,11111222 
TCOON,ioos:station:TCOON:003:1,2019-08-08T12:24:00Z,26.8015,-97.4706,1.395,11111222 
TCOON,ioos:station:TCOON:003:1,2019-08-08T13:24:00Z,26.8015,-97.4706,1.36,11111222 
TCOON,ioos:station:TCOON:003:1,2019-08-08T14:24:00Z,26.8015,-97.4706,1.338,11111222 
TCOON,ioos:station:TCOON:003:1,2019-08-08T15:24:00Z,26.8015,-97.4706,1.346,11111222 
TCOON,ioos:station:TCOON:003:1,2019-08-08T16:30:00Z,26.8015,-97.4706,1.364,11111222 
TCOON,ioos:station:TCOON:003:1,2019-08-08T17:30:00Z,26.8015,-97.4706,1.373,11111222 
TCOON,ioos:station:TCOON:003:1,2019-08-08T18:30:00Z,26.8015,-97.4706,1.416,11111222 
TCOON,ioos:station:TCOON:003:1,2019-08-08T19:24:00Z,26.8015,-97.4706,1.444,11111222 
TCOON,ioos:station:TCOON:003:1,2019-08-08T20:24:00Z,26.8015,-97.4706,1.457,11111222 
TCOON,ioos:station:TCOON:003:1,2019-08-08T21:24:00Z,26.8015,-97.4706,1.46,11111222 
TCOON,ioos:station:TCOON:003:1,2019-08-08T22:24:00Z,26.8015,-97.4706,1.462,11111222 
TCOON,ioos:station:TCOON:003:1,2019-08-08T23:24:00Z,26.8015,-97.4706,1.464,11111222 
TCOON,ioos:station:TCOON:003:1,2019-08-09T00:24:00Z,26.8015,-97.4706,1.476,11111222 
TCOON,ioos:station:TCOON:003:1,2019-08-09T01:24:00Z,26.8015,-97.4706,1.473,11111222 
TCOON,ioos:station:TCOON:003:1,2019-08-09T02:24:00Z,26.8015,-97.4706,1.47,11111222 
TCOON,ioos:station:TCOON:003:1,2019-08-09T03:24:00Z,26.8015,-97.4706,1.449,11111222 
TCOON,ioos:station:TCOON:003:1,2019-08-09T04:24:00Z,26.8015,-97.4706,1.429,11111222 
TCOON,ioos:station:TCOON:003:1,2019-08-09T05:24:00Z,26.8015,-97.4706,1.421,11111222 
TCOON,ioos:station:TCOON:003:1,2019-08-09T06:24:00Z,26.8015,-97.4706,1.422,11111222 
TCOON,ioos:station:TCOON:003:1,2019-08-09T07:24:00Z,26.8015,-97.4706,1.438,11111222 
TCOON,ioos:station:TCOON:003:1,2019-08-09T08:24:00Z,26.8015,-97.4706,1.466,11111222 
TCOON,ioos:station:TCOON:003:1,2019-08-09T09:24:00Z,26.8015,-97.4706,1.457,11111222 
TCOON,ioos:station:TCOON:003:1,2019-08-09T10:24:00Z,26.8015,-97.4706,1.436,11111222 
TCOON,ioos:station:TCOON:003:1,2019-08-09T11:24:00Z,26.8015,-97.4706,1.409,11111222 
TCOON,ioos:station:TCOON:003:1,2019-08-09T12:24:00Z,26.8015,-97.4706,1.389,11111222 
TCOON,ioos:station:TCOON:003:1,2019-08-09T13:24:00Z,26.8015,-97.4706,1.366,11111222 
TCOON,ioos:station:TCOON:003:1,2019-08-09T14:24:00Z,26.8015,-97.4706,1.35,11111222 
TCOON,ioos:station:TCOON:003:1,2019-08-09T15:24:00Z,26.8015,-97.4706,1.346,11111222 
TCOON,ioos:station:TCOON:003:1,2019-08-09T16:24:00Z,26.8015,-97.4706,1.362,11111222 
TCOON,ioos:station:TCOON:003:1,2019-08-09T17:24:00Z,26.8015,-97.4706,1.385,11111222 
TCOON,ioos:station:TCOON:003:1,2019-08-09T18:24:00Z,26.8015,-97.4706,1.403,11111222 
TCOON,ioos:station:TCOON:003:1,2019-08-09T19:24:00Z,26.8015,-97.4706,1.43,11111222 
TCOON,ioos:station:TCOON:003:1,2019-08-09T20:24:00Z,26.8015,-97.4706,1.438,11111222 
TCOON,ioos:station:TCOON:003:1,2019-08-09T21:24:00Z,26.8015,-97.4706,1.442,11111222 
TCOON,ioos:station:TCOON:003:1,2019-08-09T22:24:00Z,26.8015,-97.4706,1.45,11111222 
TCOON,ioos:station:TCOON:003:1,2019-08-09T23:24:00Z,26.8015,-97.4706,1.451,11111222 
TCOON,ioos:station:TCOON:003:1,2019-08-10T00:24:00Z,26.8015,-97.4706,1.452,11111222 
TCOON,ioos:station:TCOON:003:1,2019-08-10T01:24:00Z,26.8015,-97.4706,1.444,11111222 
TCOON,ioos:station:TCOON:003:1,2019-08-10T02:24:00Z,26.8015,-97.4706,1.432,11111222 
TCOON,ioos:station:TCOON:003:1,2019-08-10T04:30:00Z,26.8015,-97.4706,1.379,11111222 
TCOON,ioos:station:TCOON:003:1,2019-08-10T04:54:00Z,26.8015,-97.4706,1.373,11111222 
TCOON,ioos:station:TCOON:003:1,2019-08-10T05:54:00Z,26.8015,-97.4706,1.378,11111222 
TCOON,ioos:station:TCOON:003:1,2019-08-10T06:54:00Z,26.8015,-97.4706,1.381,11111222 
TCOON,ioos:station:TCOON:003:1,2019-08-10T07:54:00Z,26.8015,-97.4706,1.384,11111222 
TCOON,ioos:station:TCOON:003:1,2019-08-10T08:54:00Z,26.8015,-97.4706,1.373,11111222 
TCOON,ioos:station:TCOON:003:1,2019-08-10T09:54:00Z,26.8015,-97.4706,1.362,11111222 
TCOON,ioos:station:TCOON:003:1,2019-08-10T10:54:00Z,26.8015,-97.4706,1.357,11111222 
TCOON,ioos:station:TCOON:003:1,2019-08-11T01:30:00Z,26.8015,-97.4706,1.344,11111222 
TCOON,ioos:station:TCOON:003:1,2019-08-11T01:54:00Z,26.8015,-97.4706,1.343,11111222 
TCOON,ioos:station:TCOON:003:1,2019-08-11T05:54:00Z,26.8015,-97.4706,1.335,11111222 
TCOON,ioos:station:TCOON:003:1,2019-08-11T07:54:00Z,26.8015,-97.4706,1.32,11111222 
TCOON,ioos:station:TCOON:003:1,2019-08-11T09:54:00Z,26.8015,-97.4706,1.292,11111222 
TCOON,ioos:station:TCOON:003:1,2019-08-11T10:54:00Z,26.8015,-97.4706,1.298,11111222 
TCOON,ioos:station:TCOON:003:1,2019-08-11T12:54:00Z,26.8015,-97.4706,1.298,11111222 
TCOON,ioos:station:TCOON:003:1,2019-08-11T21:24:00Z,26.8015,-97.4706,1.372,11111222 
TCOON,ioos:station:TCOON:003:1,2019-08-12T08:06:00Z,26.8015,-97.4706,1.325,11111222 
TCOON,ioos:station:TCOON:003:1,2019-08-12T11:54:00Z,26.8015,-97.4706,1.234,11111222 
TCOON,ioos:station:TCOON:003:1,2019-08-12T12:54:00Z,26.8015,-97.4706,1.251,11111222 
TCOON,ioos:station:TCOON:003:1,2019-08-12T13:24:00Z,26.8015,-97.4706,1.257,11111222 
TCOON,ioos:station:TCOON:003:1,2019-08-12T14:24:00Z,26.8015,-97.4706,1.265,11111222 
TCOON,ioos:station:TCOON:003:1,2019-08-12T15:24:00Z,26.8015,-97.4706,1.268,11111222 
TCOON,ioos:station:TCOON:003:1,2019-08-12T16:30:00Z,26.8015,-97.4706,1.265,11111222 
TCOON,ioos:station:TCOON:003:1,2019-08-12T17:24:00Z,26.8015,-97.4706,1.276,11111222 
TCOON,ioos:station:TCOON:003:1,2019-08-12T18:24:00Z,26.8015,-97.4706,1.291,11111222 
TCOON,ioos:station:TCOON:003:1,2019-08-12T19:24:00Z,26.8015,-97.4706,1.311,11111222 
TCOON,ioos:station:TCOON:003:1,2019-08-12T20:24:00Z,26.8015,-97.4706,1.344,11111222 
TCOON,ioos:station:TCOON:003:1,2019-08-12T21:24:00Z,26.8015,-97.4706,1.372,11111222 
TCOON,ioos:station:TCOON:003:1,2019-08-12T22:24:00Z,26.8015,-97.4706,1.392,11111222 
TCOON,ioos:station:TCOON:003:1,2019-08-12T23:24:00Z,26.8015,-97.4706,1.396,11111222 
TCOON,ioos:station:TCOON:003:1,2019-08-13T00:24:00Z,26.8015,-97.4706,1.39,11111222 
TCOON,ioos:station:TCOON:003:1,2019-08-13T01:24:00Z,26.8015,-97.4706,1.376,11111222 
TCOON,ioos:station:TCOON:003:1,2019-08-13T02:24:00Z,26.8015,-97.4706,1.374,11111222 
TCOON,ioos:station:TCOON:003:1,2019-08-13T03:24:00Z,26.8015,-97.4706,1.373,11111222 
TCOON,ioos:station:TCOON:003:1,2019-08-13T04:24:00Z,26.8015,-97.4706,1.363,11111222 
TCOON,ioos:station:TCOON:003:1,2019-08-13T05:24:00Z,26.8015,-97.4706,1.355,11111222 
TCOON,ioos:station:TCOON:003:1,2019-08-13T06:24:00Z,26.8015,-97.4706,1.323,11111222 
TCOON,ioos:station:TCOON:003:1,2019-08-13T07:54:00Z,26.8015,-97.4706,1.269,11111222 
TCOON,ioos:station:TCOON:003:1,2019-08-13T08:54:00Z,26.8015,-97.4706,1.245,11111222 
TCOON,ioos:station:TCOON:003:1,2019-08-13T09:54:00Z,26.8015,-97.4706,1.237,11111222 
TCOON,ioos:station:TCOON:003:1,2019-08-13T10:54:00Z,26.8015,-97.4706,1.241,11111222 
TCOON,ioos:station:TCOON:003:1,2019-08-13T11:24:00Z,26.8015,-97.4706,1.244,11111222 
TCOON,ioos:station:TCOON:003:1,2019-08-13T12:24:00Z,26.8015,-97.4706,1.247,11111222 
TCOON,ioos:station:TCOON:003:1,2019-08-13T13:24:00Z,26.8015,-97.4706,1.246,11111222 
TCOON,ioos:station:TCOON:003:1,2019-08-13T14:24:00Z,26.8015,-97.4706,1.241,11111222 
TCOON,ioos:station:TCOON:003:1,2019-08-13T15:24:00Z,26.8015,-97.4706,1.235,11111222 
TCOON,ioos:station:TCOON:003:1,2019-08-13T16:24:00Z,26.8015,-97.4706,1.241,11111222 
TCOON,ioos:station:TCOON:003:1,2019-08-13T17:24:00Z,26.8015,-97.4706,1.256,11111222 
TCOON,ioos:station:TCOON:003:1,2019-08-13T18:24:00Z,26.8015,-97.4706,1.268,11111222 
TCOON,ioos:station:TCOON:003:1,2019-08-13T19:24:00Z,26.8015,-97.4706,1.273,11111222 
TCOON,ioos:station:TCOON:003:1,2019-08-13T20:24:00Z,26.8015,-97.4706,1.279,11111222 
TCOON,ioos:station:TCOON:003:1,2019-08-13T21:24:00Z,26.8015,-97.4706,1.315,11111222 
TCOON,ioos:station:TCOON:003:1,2019-08-13T22:24:00Z,26.8015,-97.4706,1.356,11111222 
TCOON,ioos:station:TCOON:003:1,2019-08-13T23:36:00Z,26.8015,-97.4706,1.385,11111222 
TCOON,ioos:station:TCOON:003:1,2019-08-14T00:24:00Z,26.8015,-97.4706,1.386,11111222 
TCOON,ioos:station:TCOON:003:1,2019-08-14T01:24:00Z,26.8015,-97.4706,1.379,11111222 
TCOON,ioos:station:TCOON:003:1,2019-08-14T02:24:00Z,26.8015,-97.4706,1.369,11111222 
TCOON,ioos:station:TCOON:003:1,2019-08-14T03:24:00Z,26.8015,-97.4706,1.345,11111222 
TCOON,ioos:station:TCOON:003:1,2019-08-14T04:24:00Z,26.8015,-97.4706,1.321,11111222 
TCOON,ioos:station:TCOON:003:1,2019-08-14T05:24:00Z,26.8015,-97.4706,1.285,11111222 
TCOON,ioos:station:TCOON:003:1,2019-08-14T06:24:00Z,26.8015,-97.4706,1.264,11111222 
TCOON,ioos:station:TCOON:003:1,2019-08-14T07:24:00Z,26.8015,-97.4706,1.242,11111222 
TCOON,ioos:station:TCOON:003:1,2019-08-14T08:24:00Z,26.8015,-97.4706,1.23,11111222 
TCOON,ioos:station:TCOON:003:1,2019-08-14T09:24:00Z,26.8015,-97.4706,1.22,11111222 
TCOON,ioos:station:TCOON:003:1,2019-08-14T10:24:00Z,26.8015,-97.4706,1.217,11111222 
TCOON,ioos:station:TCOON:003:1,2019-08-14T11:24:00Z,26.8015,-97.4706,1.216,11111222 
TCOON,ioos:station:TCOON:003:1,2019-08-14T12:24:00Z,26.8015,-97.4706,1.212,11111222 
TCOON,ioos:station:TCOON:003:1,2019-08-14T13:24:00Z,26.8015,-97.4706,1.214,11111222 
TCOON,ioos:station:TCOON:003:1,2019-08-14T14:36:00Z,26.8015,-97.4706,1.206,11111222 